Regional Weather Roundup
Issued by NWS Memphis, TN

Home | Current Version | Previous Version | Text Only | Print | Product List | Glossary On
Versions: 1 2 3 4 5 6 7 8 9 10 11 12 13 14 15 16 17 18 19 20 21 22 23 24 25 26 27 28 29 30 31 32 33 34 35 36 37 38 39 40 41 42 43 44 45 46 47 48 49 50
000
ASUS44 KMEG 200610
RWRMEG
MEMPHIS CWA HOURLY WEATHER ROUNDUP
NATIONAL WEATHER SERVICE MEMPHIS TN
1200 AM CST MON NOV 20 2017

...WEST TENNESSEE...

CITY           SKY/WX    TMP DP  RH WIND       PRES   REMARKS
MEMPHIS INTL   CLEAR     34  29  82 CALM      30.25F
6HR MIN TEMP:  34; 6HR MAX TEMP:  44;

NWS MEMPHIS      N/A     30 N/A N/A MISG        N/A
JACKSON        CLEAR     27  25  92 S3        30.27S
6HR MIN TEMP:  27; 6HR MAX TEMP:  40;

COVINGTON      CLEAR     27  25  93 S3        30.27S
BOLIVAR        CLEAR     27  25  93 CALM      30.25F
LEXINGTON      CLEAR     27  27 100 CALM      30.27R
SELMER         CLEAR     28  27  93 CALM      30.25S
SAVANNAH       CLEAR     27  27 100 CALM      30.26S
DYERSBURG      CLEAR     28  25  88 CALM        N/A
6HR MIN TEMP:  28; 6HR MAX TEMP:  40;

UNION CITY     CLEAR     28  25  86 CALM      30.26R
HUNTINGDON     CLEAR     28  27  93 CALM      30.25R


...EASTERN ARKANSAS...

CITY           SKY/WX    TMP DP  RH WIND       PRES   REMARKS
JONESBORO      CLEAR     30  28  92 CALM      30.25F
6HR MIN TEMP:  30; 6HR MAX TEMP:  42;

WEST MEMPHIS   CLEAR     31  30  96 CALM      30.25F
6HR MIN TEMP:  29; 6HR MAX TEMP:  43;

BATESVILLE     CLEAR     31  27  85 CALM      30.25S
6HR MIN TEMP:  31; 6HR MAX TEMP:  45;

WALNUT RIDGE     N/A     34  25  69 S5        30.24F WCI  30
BLYTHEVILLE    CLEAR     35  29  78 S3        30.26F
6HR MIN TEMP:  34; 6HR MAX TEMP:  41;

SEARCY         CLEAR     30  29  96 CALM      30.26S
6HR MIN TEMP:  29; 6HR MAX TEMP:  46;

STUTTGART      CLEAR     38  32  79 S5        30.26S WCI  34
6HR MIN TEMP:  36; 6HR MAX TEMP:  49;

PINE BLUFF     CLEAR     33  29  85 CALM      30.25F
6HR MIN TEMP:  32; 6HR MAX TEMP:  50;

MONTICELLO     CLEAR     34  29  82 CALM      30.25F
6HR MIN TEMP:  33; 6HR MAX TEMP:  45;



...NORTH MISSISSIPPI...

CITY           SKY/WX    TMP DP  RH WIND       PRES   REMARKS
TUPELO         CLEAR     33  27  78 NW3       30.26F
6HR MIN TEMP:  32; 6HR MAX TEMP:  45;

BATESVILLE     CLEAR     28  27  94 CALM      30.27F
6HR MIN TEMP:  28; 6HR MAX TEMP:  42;

TUNICA           N/A    N/A N/A N/A CALM      30.27F
CLARKSDALE       N/A     36  32  87 CALM      30.26F
CORINTH        CLEAR     28  27  93 CALM      30.26S
GREENWOOD      CLEAR     32  28  85 CALM      30.26S
6HR MIN TEMP:  30; 6HR MAX TEMP:  42; 6HR PCP: TRACE;

COLUMBUS       CLEAR     31  28  88 CALM      30.26S
6HR MIN TEMP:  31; 6HR MAX TEMP:  44;

STARKVILLE     PTCLDY    30  30 100 CALM      30.27S
GOLDEN TRIANGL PTCLDY    34  29  82 N3        30.27S
6HR MIN TEMP:  34; 6HR MAX TEMP:  46;



...SOUTHEAST MISSOURI...

CITY           SKY/WX    TMP DP  RH WIND       PRES   REMARKS
KENNETT        CLEAR     32  30  93 CALM      30.24S
MALDEN         CLEAR     36  27  69 S3        30.25F HAZE
WEST PLAINS    CLOUDY    36  19  50 S3        30.20S
6HR MIN TEMP:  29; 6HR MAX TEMP:  39;

POPLAR BLUFF   CLEAR     29  26  89 N5        30.24S WCI  24
6HR MIN TEMP:  28; 6HR MAX TEMP:  38;

CAPE GIRARDEAU CLEAR     26  24  92 CALM      30.24R
6HR MIN TEMP:  26; 6HR MAX TEMP:  37;



...NORTHWEST ALABAMA...

CITY           SKY/WX    TMP DP  RH WIND       PRES   REMARKS
MUSCLE SHOALS  CLEAR     35  26  69 CALM      30.27R
6HR MIN TEMP:  34; 6HR MAX TEMP:  44;



...MIDDLE TENNESSEE...

CITY           SKY/WX    TMP DP  RH WIND       PRES   REMARKS
NASHVILLE      CLEAR     30  25  81 S5        30.26S WCI  25
6HR MIN TEMP:  30; 6HR MAX TEMP:  40;

CLARKSVILLE    CLEAR     29  24  82 CALM      30.25F
6HR MIN TEMP:  27; 6HR MAX TEMP:  40;

COLUMBIA       CLEAR     28  27  93 CALM      30.24S


...WESTERN KENTUCKY...

CITY           SKY/WX    TMP DP  RH WIND       PRES   REMARKS
PADUCAH        CLEAR     27  22  81 CALM      30.24R
6HR MIN TEMP:  26; 6HR MAX TEMP:  38;

FORT CAMPBELL  CLEAR     28  22  79 SW3       30.25R
6HR MIN TEMP:  28; 6HR MAX TEMP:  39;



...CENTRAL ARKANSAS...

CITY           SKY/WX    TMP DP  RH WIND       PRES   REMARKS
LITTLE ROCK    CLEAR     36  33  89 CALM      30.26S
6HR MIN TEMP:  35; 6HR MAX TEMP:  49;



SKY/WX REPORTED AS FAIR MEANS FEW OR NO CLOUDS BELOW
12 THOUSAND FEET.




USA.gov is the U.S. government's official web portal to all federal, state and local government web resources and services.